Date String (YYYY-MM-DD hh:mm:ss) UTC,Instrument flags,Ambient pressure (hPa),Sample flow (lpm),Bypass flow (lpm),Sample temperature (°C),Ambient temperature (°C),ASC tube jacket temperature (°C),LED temperature (°C),Box temperature (°C),Sample RH (%),Span deviation,Mass concentration (μg/m³),Mass concentration (μg/m³),Mass concentration (μg/m³)
DateTimeUTC,F1_M11,P_M11,Q1_M11,Q2_M11,T1_M11,T2_M11,T3_M11,T4_M11,T5_M11,U1_M11,ZSPAN_M11,X0_M11,X2_M11,X1_M11
2022-09-06 08:00:00,,0828.9,5.01,0.00,29.9,27.6,00.0,38.7,31.6,15.6,0000.0,0017.69,0007.65,0006.52
2022-09-06 08:01:00,,0829.0,5.00,0.00,29.9,27.8,00.0,38.7,31.6,15.8,0000.0,0017.90,0007.66,0006.52
2022-09-06 08:02:00,,0829.1,5.00,0.00,29.9,28.1,00.0,38.7,31.7,16.3,0000.0,0018.50,0007.64,0006.51
2022-09-06 08:03:00,,0829.0,5.00,0.00,29.9,28.3,00.0,38.7,31.7,16.2,0000.0,0018.06,0007.69,0006.51
2022-09-06 08:04:00,,0829.1,5.00,0.00,29.9,28.4,00.0,38.7,31.7,16.0,0000.0,0017.50,0007.71,0006.51
2022-09-06 08:05:00,,0829.1,5.01,0.00,29.9,28.6,00.0,38.7,31.8,16.1,0000.0,0017.34,0007.66,0006.50
2022-09-06 08:06:00,,0829.1,5.00,0.00,29.9,28.7,00.0,38.7,31.8,16.1,0000.0,0017.02,0007.64,0006.52
2022-09-06 08:07:00,,0829.2,4.99,0.00,30.0,28.8,00.0,38.7,31.8,16.2,0000.0,0018.16,0007.70,0006.54
2022-09-06 08:08:00,,0829.2,5.01,0.00,30.0,28.8,00.0,38.7,31.9,16.2,0000.0,0017.42,0007.66,0006.56
2022-09-06 08:09:00,,0829.2,5.00,0.00,30.0,28.9,00.0,38.7,31.9,16.3,0000.0,0017.12,0007.68,0006.59
2022-09-06 08:10:00,,0829.0,4.99,0.00,30.0,29.0,00.0,38.7,31.9,16.5,0000.0,0017.79,0007.77,0006.65
2022-09-06 08:11:00,,0829.1,5.02,0.00,30.1,29.0,00.0,38.8,32.0,16.5,0000.0,0018.16,0007.86,0006.70
2022-09-06 08:12:00,,0828.8,4.99,0.00,30.1,29.1,00.0,38.8,32.0,16.4,0000.0,0019.07,0007.92,0006.75
2022-09-06 08:13:00,,0828.9,5.01,0.00,30.1,29.1,00.0,38.8,32.0,16.0,0000.0,0018.63,0007.94,0006.79
2022-09-06 08:14:00,,0829.0,4.99,0.00,30.1,28.0,00.0,38.8,31.9,16.0,0000.0,0018.66,0007.95,0006.80
2022-09-06 08:15:00,,0828.9,5.00,0.00,30.1,27.1,00.0,38.8,31.9,16.1,0000.0,0018.14,0007.94,0006.80
2022-09-06 08:16:00,,0828.9,4.99,0.00,30.0,27.1,00.0,38.7,31.8,16.1,0000.0,0018.54,0007.96,0006.80
2022-09-06 08:17:00,,0829.0,5.00,0.00,30.0,27.4,00.0,38.7,31.7,16.1,0000.0,0018.55,0007.92,0006.79
2022-09-06 08:18:00,,0828.8,5.01,0.00,29.9,27.7,00.0,38.7,31.6,16.2,0000.0,0017.93,0007.87,0006.78
2022-09-06 08:19:00,,0828.7,5.00,0.00,29.9,27.9,00.0,38.7,31.7,16.2,0000.0,0017.71,0007.90,0006.78
2022-09-06 08:20:00,,0828.6,5.00,0.00,29.9,28.1,00.0,38.7,31.7,16.2,0000.0,0016.94,0007.93,0006.78
2022-09-06 08:21:00,,0828.7,5.00,0.00,29.9,28.3,00.0,38.7,31.7,16.2,0000.0,0016.82,0007.90,0006.77
2022-09-06 08:22:00,,0828.7,5.00,0.00,29.9,28.5,00.0,38.7,31.7,16.2,0000.0,0016.96,0007.90,0006.77
2022-09-06 08:23:00,,0828.7,4.98,0.00,29.9,28.6,00.0,38.7,31.7,16.2,0000.0,0015.52,0007.87,0006.75
2022-09-06 08:24:00,,0828.7,5.01,0.00,30.0,28.7,00.0,38.7,31.8,16.2,0000.0,0016.29,0007.90,0006.74
2022-09-06 08:25:00,,0828.7,4.99,0.00,30.0,28.8,00.0,38.7,31.8,16.2,0000.0,0016.68,0007.94,0006.75
2022-09-06 08:26:00,,0828.7,5.00,0.00,30.0,28.8,00.0,38.7,31.9,16.2,0000.0,0017.12,0007.94,0006.76
2022-09-06 08:27:00,,0828.7,5.01,0.00,30.0,28.9,00.0,38.7,31.9,16.1,0000.0,0017.56,0007.96,0006.76
2022-09-06 08:28:00,,0828.7,4.99,0.00,30.1,29.0,00.0,38.8,31.9,15.9,0000.0,0017.80,0007.99,0006.76
2022-09-06 08:29:00,,0828.8,5.02,0.00,30.1,29.0,00.0,38.8,32.0,15.9,0000.0,0017.43,0008.00,0006.76
2022-09-06 08:30:00,,0829.3,4.99,0.00,30.1,29.1,00.0,38.8,32.0,15.5,0000.0,0017.29,0007.95,0006.73
2022-09-06 08:31:00,,0829.3,5.01,0.00,30.1,29.1,00.0,38.8,32.0,15.6,0000.0,0017.54,0007.92,0006.69
2022-09-06 08:32:00,,0829.4,5.01,0.00,30.2,28.9,00.0,38.8,32.0,15.6,0000.0,0017.76,0007.89,0006.68
2022-09-06 08:33:00,,0829.3,4.99,0.00,30.1,27.6,00.0,38.8,31.9,15.7,0000.0,0017.80,0007.87,0006.68
2022-09-06 08:34:00,,0829.3,5.01,0.00,30.1,27.1,00.0,38.8,31.9,15.9,0000.0,0017.79,0007.83,0006.66
2022-09-06 08:35:00,,0829.3,4.99,0.00,30.0,27.2,00.0,38.8,31.8,16.1,0000.0,0016.77,0007.78,0006.66
2022-09-06 08:36:00,,0829.3,5.00,0.00,30.0,27.5,00.0,38.7,31.7,16.1,0000.0,0016.72,0007.80,0006.64
2022-09-06 08:37:00,,0829.2,4.99,0.00,30.0,27.8,00.0,38.7,31.7,15.6,0000.0,0016.23,0007.75,0006.59
2022-09-06 08:38:00,,0829.0,5.01,0.00,29.9,28.1,00.0,38.7,31.7,15.6,0000.0,0015.30,0007.65,0006.51
2022-09-06 08:39:00,,0828.9,5.00,0.00,29.9,28.3,00.0,38.7,31.7,15.5,0000.0,0015.64,0007.58,0006.45
2022-09-06 08:40:00,,0828.9,5.00,0.00,29.9,28.4,00.0,38.7,31.8,15.5,0000.0,0014.93,0007.48,0006.38
2022-09-06 08:41:00,,0828.8,5.01,0.00,30.0,28.5,00.0,38.7,31.7,15.4,0000.0,0015.38,0007.39,0006.34
2022-09-06 08:42:00,,0828.8,4.99,0.00,30.0,28.6,00.0,38.7,31.8,15.4,0000.0,0015.19,0007.34,0006.30
2022-09-06 08:43:00,,0828.8,5.00,0.00,30.0,28.7,00.0,38.7,31.9,15.3,0000.0,0014.39,0007.25,0006.23
2022-09-06 08:44:00,,0828.8,5.01,0.00,30.0,28.8,00.0,38.7,31.9,15.3,0000.0,0014.08,0007.13,0006.15
2022-09-06 08:45:00,,0828.8,4.99,0.00,30.0,28.9,00.0,38.8,31.9,15.3,0000.0,0014.26,0007.08,0006.09
2022-09-06 08:46:00,,0828.8,5.01,0.00,30.1,29.0,00.0,38.8,32.0,15.3,0000.0,0014.20,0007.02,0006.03
2022-09-06 08:47:00,,0828.9,4.98,0.00,30.1,29.0,00.0,38.8,32.0,15.3,0000.0,0013.80,0006.91,0005.97
2022-09-06 08:48:00,,0828.9,5.01,0.00,30.1,29.1,00.0,38.8,32.0,15.3,0000.0,0013.94,0006.88,0005.95
2022-09-06 08:49:00,,0828.9,4.99,0.00,30.2,29.1,00.0,38.8,32.0,15.2,0000.0,0013.63,0006.85,0005.94
2022-09-06 08:50:00,,0828.9,5.00,0.00,30.2,29.0,00.0,38.9,32.1,15.2,0000.0,0012.77,0006.83,0005.93
2022-09-06 08:51:00,,0828.8,4.99,0.00,30.2,27.7,00.0,38.8,31.9,15.2,0000.0,0012.77,0006.85,0005.93
2022-09-06 08:52:00,,0828.9,4.99,0.00,30.1,26.4,00.0,38.8,31.7,15.3,0000.0,0012.21,0006.86,0005.92
2022-09-06 08:53:00,,0828.8,5.00,0.00,30.0,26.4,00.0,38.7,31.7,15.4,0000.0,0011.99,0006.84,0005.93
2022-09-06 08:54:00,,0828.8,4.99,0.00,29.9,26.6,00.0,38.7,31.4,15.5,0000.0,0012.01,0006.85,0005.93
2022-09-06 08:55:00,,0828.9,5.00,0.00,29.8,27.0,00.0,38.6,31.4,15.6,0000.0,0011.62,0006.86,0005.95
2022-09-06 08:56:00,,0828.9,5.00,0.00,29.8,27.4,00.0,38.6,31.4,15.6,0000.0,0011.46,0006.85,0005.93
2022-09-06 08:57:00,,0828.9,5.00,0.00,29.8,27.7,00.0,38.6,31.5,15.5,0000.0,0012.06,0006.85,0005.93
2022-09-06 08:58:00,,0828.8,5.01,0.00,29.8,27.9,00.0,38.6,31.5,15.5,0000.0,0012.00,0006.83,0005.92
2022-09-06 08:59:00,,0828.8,5.01,0.00,29.8,28.1,00.0,38.6,31.5,15.5,0000.0,0011.69,0006.81,0005.91
